Home > Time Zones > World Clock > Weather > China > Wuhan > Past weeks

Flag for China Weather past 2 weeks in Wuhan, Hubei, China

Now
84 °F

Partly sunny.


Feels Like: 94 °F
Forecast: 76 / 87 °F
Wind: 1 mph from North

Location: Wuhan Airport

Current Time: Sep 4, 2015 at 6:32:30 PM

Latest Report: Sep 4, 2015 at 6:00 PM


Visibility: N/A

Pressure: 29.74 "Hg

Humidity: 79%

Dew point: 77 °F

Location of WuhanLocation

Historic Weather in Wuhan — Graph

°F

Wuhan temperature yesterday

Maximum temperature yesterday: 90 °F (at 3:00 PM)
Minimum temperature yesterday: 72 °F (at 3:00 AM)
Average temperature yesterday: 80 °F

Past Weeks' High & Low Weather Summary

 TemperatureHumidityPressure
High93 °F (Aug 22, 3:00 PM)100% (Aug 22, 6:00 AM)29.98 "Hg (Aug 22, 6:00 AM)
Low70 °F (Aug 25, 5:00 AM)39% (Aug 23, 3:00 PM)29.59 "Hg (Aug 23, 6:00 PM)
Average81 °F73%29.78 "Hg
* Reported Aug 20 5:00 PM — Sep 4 5:00 PM, Wuhan, Weather by CustomWeather, © 2015

Note: Actual official high and low records may vary slightly from our data, if they occured in-between our weather recording intervals... More about our weather records

Advertising

Wuhan weather history for previous 24 hours

 ConditionsComfort  
Time TempWeatherWind HumidityBarometerVisibility
5:00 PM
Fri, Sep 4
86 °FScattered clouds.3 mph79%29.74 "HgN/A
4:00 PM86 °FSprinkles. Scattered clouds.8 mph75%29.77 "HgN/A
3:00 PM90 °FScattered clouds.6 mph67%29.77 "HgN/A
2:00 PM86 °FSprinkles. Scattered clouds.6 mph75%29.80 "HgN/A
1:00 PM84 °FFog.3 mph79%29.80 "Hg2 mi
12:00 PM82 °FLight rain. Fog.1 mph84%29.83 "Hg2 mi
11:00 AM82 °FLight rain. Fog.6 mph84%29.86 "Hg2 mi
10:00 AM82 °FLight rain. Fog.3 mph84%29.86 "Hg2 mi
9:00 AM81 °FFog.6 mph84%29.86 "Hg2 mi
8:00 AM82 °FHaze.8 mph74%29.86 "Hg2 mi
7:00 AM79 °FFog.8 mph84%29.86 "Hg3 mi
6:00 AM77 °FFog.8 mph83%29.86 "Hg3 mi
5:00 AM79 °FFog.10 mph79%29.83 "Hg3 mi
4:00 AM79 °FFog.8 mph84%29.86 "Hg3 mi
3:00 AM79 °FClear.6 mph79%29.86 "Hg4 mi
2:00 AM77 °FClear.6 mph79%29.86 "Hg10 mi
1:00 AM79 °FClear.6 mph74%29.89 "Hg10 mi
12:00 AM81 °FClear.8 mph70%29.89 "Hg10 mi
11:00 PM
Thu, Sep 3
81 °FClear.8 mph70%29.89 "Hg10 mi
10:00 PM81 °FClear.10 mph70%29.89 "Hg10 mi
9:00 PM81 °FClear.8 mph70%29.89 "Hg10 mi
8:00 PM84 °FClear.3 mph66%29.89 "Hg4 mi
7:00 PM86 °FHaze.6 mph62%29.86 "Hg3 mi
6:00 PM88 °FClear.8 mph59%29.86 "Hg4 mi
Weather by CustomWeather, © 2015

See weather overviewHow to use our weather pages